Location: Barbegal
(43.6953°N, 4.7157°E)
Time: 01:12:11
(UTC+00:00)

Daily predictions for brighter satellites

Satellite Brightness Start Highest point End
(mag) Time Altitude Azimuth Time Altitude Azimuth Time Altitude Azimuth
STARLINK-1099 4.5 00:00:32 10° NW 00:03:25 43° NW 00:03:25 43° NW
GEOS 3 Rocket 4.0 00:07:38 31° ESE 00:10:03 60° NE 00:15:15 10° NNW
Cosmos 1726 3.5 00:08:26 10° NNW 00:10:54 33° NW 00:10:54 33° NW
COSMOS 2455 2.8 00:11:40 57° SSE 00:12:35 64° ESE 00:18:33 10° NE
Cosmos 2058 Rocket 4.0 00:09:01 10° N 00:13:10 39° ENE 00:13:46 37° E
Meteor 1-29 4.3 00:11:15 10° NNE 00:13:32 37° NE 00:13:32 37° NE
Cosmos 2228 3.0 00:11:29 10° N 00:15:32 76° NE 00:15:32 76° NE
SL-14 R/B 4.4 00:18:39 34° E 00:18:39 34° E 00:21:50 10° NNE
Meteor 2-15 Rocket 4.4 00:13:23 10° NNW 00:19:33 78° W 00:20:55 56° SSW
Cosmos 1953 3.7 00:16:40 10° NNW 00:19:26 29° WNW 00:19:26 29° WNW
Cosmos 1340 Rocket 3.8 00:18:04 10° NNW 00:21:08 38° WNW 00:21:08 38° WNW
Okean 1-7 Rocket 4.0 00:22:04 52° E 00:22:11 52° E 00:26:33 10° NNE
Cosmos 921 Rocket 4.3 00:23:34 29° E 00:23:34 29° E 00:27:12 10° NE
Cosmos 1300 3.9 00:21:25 10° N 00:24:55 33° ENE 00:25:04 33° E
COSMOS 2487 3.6 00:24:59 10° NNW 00:27:18 39° NNW 00:27:18 39° NNW
Cosmos 1833 4.3 00:23:52 10° NNW 00:29:22 54° WSW 00:29:45 53° SW
Cosmos 1626 2.7 00:34:31 52° ENE 00:34:31 52° ENE 00:37:42 10° NNE
Cosmos 1656 Rocket 4.3 00:33:51 38° WSW 00:35:31 49° WNW 00:40:57 10° NNE
Cosmos 1606 Rocket 3.9 00:34:53 10° NNW 00:38:48 53° WNW 00:38:48 53° WNW
FALCON 9 R/B 3.2 00:38:25 42° S 00:39:42 46° SSE 00:56:23 10° E
CZ-4 R/B 4.5 00:40:05 10° N 00:44:38 43° WNW 00:45:23 39° W
Meteor 2-21 4.4 00:45:34 50° SSW 00:47:17 79° W 00:53:30 10° N
Cosmos 2297 Rocket 4.0 00:43:57 10° N 00:48:50 29° NE 00:53:39 10° ESE
SL-4 R/B 2.3 00:49:12 64° WSW 00:49:56 86° NNW 00:54:43 10° ENE
Cosmos 1437 4.1 00:52:48 34° NE 00:52:48 34° NE 00:54:49 10° NNE
NOSS 3-2 (C) 4.4 00:44:52 10° NW 00:52:12 46° WSW 00:54:29 38° SSW
Cosmos 1674 4.2 00:53:21 26° WNW 00:53:21 26° WNW 00:56:14 10° NNW
ATLAS CENTAUR R/B 1.6 00:56:56 58° W 00:57:24 63° NW 01:01:34 10° NNE
SL-19 R/B 4.2 00:53:05 10° NNE 00:58:29 79° WNW 01:00:03 49° SSW
SL-16 R/B 2.9 00:56:01 23° SE 00:59:54 61° ENE 01:05:58 10° N
NOSS 3-4 (A) 4.0 00:57:30 28° WSW 01:00:23 50° NW 01:06:34 10° NNE
NOSS 3-4 (C) 4.0 00:57:37 29° WSW 01:00:29 50° NW 01:06:41 10° NNE
Cosmos 1777 Rocket 3.9 00:55:28 10° NNW 01:00:42 77° WSW 01:01:54 53° S
Timation 2 Rocket 3.9 00:54:37 10° NNW 01:01:00 83° ENE 01:04:30 28° SSE
FALCON 9 DEB 4.5 01:02:08 32° E 01:02:08 32° E 01:04:19 10° ENE
BREEZE-M R/B 3.1 01:01:07 60° SSE 01:01:07 60° SSE 01:04:22 10° ENE
Spot 1 4.1 01:00:54 63° SW 01:01:24 69° WSW 01:06:13 10° NNW
Cosmos 1602 Rocket 4.3 01:01:58 38° SE 01:02:51 44° E 01:06:59 10° NNE
STARLINK-29 4.0 01:04:34 41° ENE 01:04:34 41° ENE 01:06:47 10° ENE
Cosmos 1455 4.4 01:04:20 10° NNE 01:07:15 21° ENE 01:09:23 14° ESE
ATLAS 3B R/B 2.6 01:01:20 10° NW 01:08:08 75° WSW 01:12:43 24° SSE
CENTAUR R/B 3.6 01:04:21 10° NW 01:11:59 42° WSW 01:14:47 34° SSW
BREEZE-M DEB (TANK) 2.6 01:12:38 39° N 01:12:38 39° N 01:14:34 10° NE
Cosmos 1745 Rocket 3.9 01:12:45 40° S 01:15:11 88° E 01:21:21 10° N
Cosmos 1892 Rocket 4.5 01:14:51 33° W 01:15:18 34° WNW 01:19:20 10° N
Cosmos 1867 3.9 01:11:19 10° NW 01:16:26 42° WSW 01:16:44 42° SW
RESURS DK-1 2.4 01:19:17 58° WSW 01:19:49 65° WNW 01:23:57 10° NNE
Meteor 1-24 Rocket 4.1 01:22:03 36° WSW 01:23:31 45° WNW 01:28:41 10° N
Cosmos 2227 Rocket 3.3 01:19:13 10° NNW 01:24:39 44° ENE 01:30:03 10° SE
Cosmos 1356 Rocket 3.3 01:20:53 10° NNW 01:25:03 82° WSW 01:25:49 58° S
Cosmos 1697 Rocket 4.3 01:23:11 16° SE 01:26:20 25° ESE 01:30:54 10° NE
CZ-2D R/B 2.0 01:22:57 10° NNE 01:28:15 83° ESE 01:30:15 39° S
ATLAS 2AS CENTAUR R/B 4.0 01:23:17 16° WSW 01:29:24 42° NW 01:36:51 10° NNE
ADEOS II 3.3 01:26:05 10° NNE 01:30:52 34° E 01:34:07 18° SSE
IKONOS-2 4.4 01:29:56 47° S 01:31:08 85° WSW 01:35:26 10° NNW
CZ-4C R/B 3.5 01:30:46 55° SW 01:31:25 63° WSW 01:35:43 10° NNW
STARLINK-1228 3.0 01:32:18 10° NW 01:35:40 82° NE 01:39:00 10° ESE
STARLINK-1234 2.9 01:33:44 10° NW 01:36:52 78° NE 01:37:03 73° E
Resurs 1-4 Rocket 2.0 01:32:42 10° NNE 01:38:00 80° WNW 01:40:11 37° SSW
STARLINK-1212 3.4 01:35:08 10° NW 01:38:12 59° NNE 01:41:16 10° ESE
STARLINK-1105 3.4 01:35:36 10° NW 01:38:40 59° NNE 01:41:43 10° ESE
USA 81 4.0 01:36:19 34° S 01:38:42 83° E 01:44:01 10° N
STARLINK-1209 3.1 01:35:59 10° NW 01:38:42 63° NW 01:38:42 63° NW
STARLINK-1247 3.3 01:36:30 10° NW 01:39:36 60° NNE 01:42:41 10° ESE
STARLINK-1227 3.3 01:36:58 10° NW 01:40:02 61° NNE 01:43:06 10° ESE
STARLINK-52 3.4 01:39:41 50° WNW 01:40:02 54° NNW 01:43:13 10° NE
STARLINK-1226 3.3 01:37:49 10° NW 01:40:55 62° NNE 01:43:59 10° ESE
Cosmos 1758 Rocket 4.0 01:39:23 31° SSE 01:41:12 54° E 01:45:28 10° NNE
STARLINK-1215 3.2 01:38:45 10° NW 01:41:51 63° NNE 01:44:57 10° ESE
ARIANE 5 R/B 4.2 01:38:40 10° NE 01:42:54 27° E 01:46:55 11° SSE
STARLINK-1217 3.2 01:40:31 10° NW 01:43:37 66° NNE 01:46:43 10° ESE
STARLINK-1229 3.1 01:41:26 10° NW 01:44:33 67° NNE 01:47:39 10° ESE
STARLINK-1270 3.1 01:42:18 10° NW 01:45:25 68° NNE 01:48:32 10° ESE
NPP 3.6 01:40:03 10° NNE 01:45:27 81° WNW 01:47:57 33° SSW
STARLINK-1189 3.0 01:44:08 10° NW 01:47:15 71° NNE 01:50:21 10° ESE
STARLINK-1188 3.0 01:45:01 10° NW 01:48:08 72° NNE 01:51:15 10° ESE
STARLINK-1235 2.7 01:45:42 10° NW 01:48:48 86° SW 01:51:54 10° SE
STARLINK-1187 2.8 01:46:07 10° NW 01:49:13 84° NE 01:52:20 10° ESE
Meteor 1-21 Rocket 4.2 01:46:49 31° S 01:49:38 89° ESE 01:55:20 10° N
Cosmos 1898 Rocket 4.1 01:44:42 10° NNW 01:50:00 59° ENE 01:55:14 10° SSE
STARLINK-1191 2.9 01:47:29 10° NW 01:50:36 76° NE 01:53:41 10° ESE
Cosmos 1656 3.8 01:48:20 31° S 01:51:11 74° ESE 01:56:49 10° NNE
Lacrosse 4 Rocket 4.2 01:47:57 10° N 01:51:18 21° NE 01:54:34 10° E
STARLINK-1221 2.9 01:48:21 10° NW 01:51:28 77° NE 01:54:34 10° ESE
STARLINK-1222 2.9 01:49:15 10° NW 01:52:22 79° NE 01:55:27 10° ESE
CZ-4C R/B 3.0 01:50:43 23° SSE 01:53:10 37° ESE 01:58:21 10° NE
STARLINK-1214 2.8 01:50:10 10° NW 01:53:16 80° NE 01:56:21 10° ESE
Cosmos 2084 3.8 01:52:18 34° WSW 01:54:01 60° NW 01:58:27 10° NNE
Cosmos 468 Rocket 4.1 01:52:22 30° S 01:54:54 71° ESE 02:00:02 10° NNE
SJ 16-02 1.5 01:51:06 10° NNW 01:55:33 75° ENE 01:59:17 14° SSE
Cosmos 1953 Rocket 4.5 01:54:38 19° SSE 01:57:32 45° E 02:01:48 10° NNE
COSMOS 2455 4.4 01:54:47 13° W 01:58:59 27° NW 02:04:03 10° NNE
Cosmos 2369 4.5 01:55:55 19° S 01:59:33 44° ESE 02:04:53 10° NE
Cosmos 1937 Rocket 4.3 01:55:07 10° NNW 02:00:14 52° ENE 02:05:23 10° SE
Cosmos 921 Rocket 4.4 02:00:21 21° W 02:01:45 25° WNW 02:05:22 10° N
Meteor 2-10 Rocket 3.4 01:57:16 10° NNW 02:02:36 77° W 02:06:01 22° S
STARLINK-1198 4.5 01:59:39 10° NW 02:03:44 52° NNE 02:07:47 10° ESE
Cosmos 1709 Rocket 4.0 02:01:48 26° SSW 02:05:20 70° W 02:11:28 10° N
STARLINK-1199 4.3 02:04:40 10° NW 02:08:45 56° NNE 02:12:50 10° ESE
STARLINK-1210 4.2 02:09:37 10° NW 02:13:44 60° NNE 02:17:50 10° ESE
STARLINK-1320 2.8 02:14:52 41° WSW 02:15:49 76° NW 02:18:57 10° NE
STARLINK-1322 2.9 02:15:11 40° WSW 02:16:09 76° NNW 02:19:16 10° NE
STARLINK-1324 2.9 02:15:32 40° WSW 02:16:30 75° NW 02:19:38 10° NE
STARLINK-1294 2.9 02:15:47 39° WSW 02:16:47 75° NW 02:19:56 10° NE
STARLINK-1261 2.9 02:16:09 39° WSW 02:17:10 74° NNW 02:20:17 10° NE
STARLINK-1325 2.9 02:16:31 38° WSW 02:17:31 74° NW 02:20:39 10° NE
Cosmos 2219 3.4 02:12:04 10° NW 02:17:33 51° WSW 02:22:14 14° S
STARLINK-1333 2.9 02:16:48 38° WSW 02:17:50 73° NW 02:20:57 10° NE
STARLINK-1334 2.9 02:17:07 37° WSW 02:18:10 73° NNW 02:21:17 10° NE
Cosmos 1980 Rocket 3.4 02:13:41 11° S 02:18:29 36° ESE 02:23:35 10° NE
STARLINK-1326 2.9 02:17:28 37° WSW 02:18:32 72° NNW 02:21:39 10° NE
STARLINK-1219 4.0 02:14:35 10° NW 02:18:43 64° NNE 02:22:50 10° ESE
STARLINK-1323 2.9 02:17:47 37° WSW 02:18:52 72° NNW 02:21:58 10° NE
STARLINK-1338 3.1 02:17:39 34° WSW 02:19:03 82° NW 02:22:33 10° NE
STARLINK-1349 2.9 02:18:06 36° WSW 02:19:11 71° NNW 02:22:18 10° NE
STARLINK-1336 2.9 02:18:28 36° WSW 02:19:33 71° NNW 02:22:40 10° NE
STARLINK-1331 2.9 02:18:45 35° WSW 02:19:51 70° NW 02:22:59 10° NE
STARLINK-1344 3.0 02:19:05 35° WSW 02:20:12 70° NNW 02:23:19 10° NE
STARLINK-1343 3.0 02:19:25 35° WSW 02:20:33 69° NNW 02:23:40 10° NE
STARLINK-1346 3.0 02:19:43 34° WSW 02:20:55 69° NNW 02:24:03 10° NE
STARLINK-1328 3.0 02:20:05 34° WSW 02:21:14 68° NNW 02:24:21 10° NE
Cosmos 1328 3.7 02:19:18 27° SSW 02:21:23 74° W 02:25:23 10° N
STARLINK-1354 3.0 02:20:22 34° WSW 02:21:33 68° NNW 02:24:40 10° NE
STARLINK-1347 3.0 02:20:44 33° WSW 02:21:55 67° NNW 02:25:02 10° NE
STARLINK-1357 3.0 02:21:01 33° WSW 02:22:14 67° NNW 02:25:20 10° NE
STARLINK-1335 3.0 02:21:22 33° WSW 02:22:34 66° NNW 02:25:42 10° NE
STARLINK-1327 3.0 02:21:41 32° WSW 02:22:54 66° NW 02:26:00 10° NE
STARLINK-1371 3.2 02:21:31 30° WSW 02:23:06 77° NNW 02:26:36 10° NE
STARLINK-1340 3.0 02:22:01 32° WSW 02:23:16 65° NNW 02:26:22 10° NE
CRYOSAT 2 4.3 02:18:34 10° N 02:23:30 87° W 02:27:17 17° S
STARLINK-1356 3.1 02:22:21 32° WSW 02:23:36 65° NNW 02:26:43 10° NE
STARLINK-1211 3.9 02:19:32 10° NW 02:23:41 70° NNE 02:27:49 10° ESE
ERS-2 2.9 02:20:15 10° SSE 02:23:48 52° ENE 02:27:23 10° N
STARLINK-1345 3.1 02:22:41 31° WSW 02:23:57 64° NNW 02:27:03 10° NE
STARLINK-1355 3.1 02:22:59 31° WSW 02:24:16 64° NNW 02:27:23 10° NE
STARLINK-1321 3.1 02:23:18 31° WSW 02:24:36 64° NNW 02:27:42 10° NE
STARLINK-1358 3.1 02:23:39 30° WSW 02:24:58 63° NNW 02:28:04 10° NE
STARLINK-1341 3.2 02:23:29 29° WSW 02:25:08 74° NW 02:28:39 10° NE
STARLINK-1332 3.1 02:23:57 30° WSW 02:25:16 63° NNW 02:28:22 10° NE
STARLINK-1348 3.1 02:24:18 30° WSW 02:25:38 62° NNW 02:28:45 10° NE
STARLINK-1330 3.1 02:24:36 29° WSW 02:25:57 62° NNW 02:29:03 10° NE
STARLINK-1363 3.1 02:24:56 29° WSW 02:26:17 61° NNW 02:29:23 10° NE
STARLINK-1337 3.1 02:25:15 29° WSW 02:26:38 61° NNW 02:29:44 10° NE
STARLINK-1342 3.2 02:25:35 28° WSW 02:26:58 60° NNW 02:30:04 10° NE
STARLINK-1374 3.3 02:25:26 27° WSW 02:27:11 71° NNW 02:30:42 10° NE
STARLINK-1364 3.2 02:25:55 28° WSW 02:27:19 60° NNW 02:30:25 10° NE
STARLINK-1376 3.2 02:26:15 28° WSW 02:27:40 60° NNW 02:30:46 10° NE
STARLINK-1360 3.2 02:26:30 28° WSW 02:27:56 59° NNW 02:31:02 10° NE
STARLINK-1361 3.2 02:26:56 27° WSW 02:28:22 59° NNW 02:31:28 10° NE
STARLINK-1367 3.2 02:27:10 27° WSW 02:28:39 59° NNW 02:31:46 10° NE
STARLINK-1245 3.8 02:24:32 10° NW 02:28:42 75° NE 02:32:50 10° ESE
STARLINK-1366 3.2 02:27:33 27° WSW 02:29:01 58° NNW 02:32:06 10° NE
IRS-1C 4.1 02:23:50 10° NNE 02:29:12 87° WNW 02:33:25 17° SSW
STARLINK-1339 3.3 02:27:27 26° WSW 02:29:16 69° NNW 02:32:47 10° NE
SL-4 R/B 3.8 02:25:41 10° W 02:30:07 35° NNW 02:34:24 10° NE
STARLINK-1377 3.4 02:29:28 24° WSW 02:31:22 66° NNW 02:34:53 10° NE
CZ-4B R/B 4.4 02:27:21 10° N 02:32:01 36° WNW 02:35:13 18° WSW
Cosmos 2297 Rocket 2.4 02:27:40 10° NW 02:33:05 48° WSW 02:38:28 10° S
STARLINK-1353 3.4 02:31:17 23° WSW 02:33:14 64° NNW 02:36:42 10° NE
STARLINK-1233 3.7 02:29:31 10° NW 02:33:40 81° NE 02:37:48 10° ESE
STARLINK-1375 3.4 02:33:04 22° WSW 02:35:06 62° NNW 02:38:34 10° NE
Cosmos 540 Rocket 3.7 02:32:22 15° S 02:36:37 70° ESE 02:41:44 10° NNE
Cosmos 2082 3.7 02:31:11 10° NNW 02:36:53 88° WSW 02:42:31 10° SSE
ATLAS CENTAUR R/B 4.0 02:35:35 10° NW 02:37:02 11° NW 02:38:28 10° NNW
STARLINK-1350 3.5 02:35:22 21° WSW 02:37:30 59° NNW 02:40:57 10° NE
STARLINK-1204 3.6 02:34:30 10° NW 02:38:40 87° NE 02:42:48 10° SE
Cosmos 990 Rocket 4.2 02:33:49 10° NNW 02:38:54 50° WSW 02:43:57 10° S
STARLINK-1352 3.6 02:37:39 19° WSW 02:39:56 57° NNW 02:43:25 10° NE
Cosmos 1825 Rocket 4.2 02:38:21 20° SW 02:40:49 40° WNW 02:44:55 10° N
Cosmos 2278 4.0 02:36:08 14° S 02:41:01 67° ESE 02:46:38 10° NNE
STARLINK-1368 3.7 02:39:45 18° WSW 02:42:07 54° NNW 02:45:35 10° NE
Cosmos 1455 3.4 02:39:43 10° NW 02:42:50 25° W 02:44:15 20° SW
Meteor 1-11 4.2 02:38:11 13° SSW 02:43:15 84° W 02:48:53 10° N
CZ-2D R/B 3.8 02:39:25 10° NNE 02:43:31 66° ESE 02:47:41 10° S
Meteor 1-28 Rocket 3.2 02:39:49 10° SSE 02:43:36 88° ENE 02:47:23 10° NNW
STARLINK-1238 3.5 02:39:27 10° NW 02:43:37 87° SSW 02:47:45 10° SE
SL-16 R/B 3.7 02:41:06 17° SW 02:43:55 22° W 02:48:38 10° NW
STARLINK-1369 3.7 02:41:37 18° WSW 02:44:02 52° NNW 02:47:28 10° NE
USA 234 4.0 02:39:00 10° ENE 02:45:10 43° SE 02:51:06 11° SSW
STARLINK-1372 3.8 02:43:57 16° WSW 02:46:31 51° NNW 02:49:58 10° NE
Cosmos 2074 Rocket 4.0 02:40:25 10° S 02:46:37 84° W 02:52:58 10° N
ATLAS CENTAUR R/B 2.7 02:43:37 10° WNW 02:47:03 48° SW 02:55:09 10° SSE
STARLINK-1201 3.5 02:44:27 10° WNW 02:48:36 80° SW 02:52:44 10° SE
Cosmos 2263 Rocket 4.3 02:43:42 10° N 02:48:39 31° NE 02:53:33 10° ESE
STARLINK-1378 3.8 02:46:05 16° WSW 02:48:44 49° NNW 02:52:11 10° NE
Cosmos 841 Rocket 3.5 02:44:27 15° SSW 02:48:54 85° WNW 02:54:10 10° NNE
STARLINK-1329 3.9 02:46:35 15° WSW 02:49:16 49° NNW 02:52:43 10° NE
STARLINK-1365 3.9 02:47:17 15° W 02:50:00 46° NNW 02:53:26 10° NE
Cosmos 372 Rocket 4.4 02:45:30 10° NNW 02:50:37 64° ENE 02:55:42 10° SSE
STARLINK-1379 3.9 02:48:13 15° W 02:50:58 47° NNW 02:54:24 10° NE
GP-B 4.3 02:47:16 10° NNW 02:50:59 26° WNW 02:53:37 16° SW
STARLINK-1362 3.9 02:48:47 14° W 02:51:33 47° NNW 02:55:00 10° NE
IRS-1D 4.4 02:46:56 10° N 02:51:47 37° WNW 02:55:45 14° SW
STARLINK-1206 3.5 02:49:26 10° WNW 02:53:35 74° SW 02:57:42 10° SE
COBE Rocket 3.9 02:48:43 10° S 02:53:36 73° W 02:58:39 10° NNW
STARLINK-1373 4.0 02:50:59 14° W 02:53:52 45° NNW 02:57:18 10° NE
Cosmos-2242 3.9 02:50:42 10° NNW 02:54:26 30° W 02:57:21 14° SW
Cosmos 1869 4.4 02:51:22 10° N 02:55:08 44° ENE 02:58:49 10° SSE
Cosmos 1400 Rocket 2.8 02:51:38 10° NNW 02:55:44 68° W 02:59:49 10° S
STARLINK-1390 4.0 02:52:59 13° W 02:55:56 44° NNW 02:59:21 10° NE
Cosmos 2221 3.2 02:52:16 10° N 02:56:32 57° E 03:00:49 10° SSE
ATLAS 3B R/B 4.2 02:54:29 10° WNW 02:57:47 14° WSW 02:59:50 12° WSW
Cosmos 2184 Rocket 4.0 02:52:00 10° SSW 02:58:11 72° W 03:04:21 10° N
STARLINK-1205 3.5 02:54:25 10° WNW 02:58:33 68° SW 03:02:39 10° SE
SL-08 R/B 3.7 02:54:40 10° S 02:59:10 43° W 03:03:37 10° NNW
CZ-4C R/B 3.1 02:56:00 10° SSE 02:59:33 84° E 03:03:12 10° NNW
STARLINK-1218 3.6 02:59:24 10° WNW 03:03:30 62° SW 03:07:34 10° SE
CZ-2D R/B 4.1 03:04:45 10° NNW 03:07:35 15° WNW 03:10:24 10° W
Cosmos 1763 Rocket 4.5 03:03:46 12° WSW 03:07:53 32° WNW 03:12:28 10° N
STARLINK-1254 3.7 03:04:24 10° WNW 03:08:28 56° SW 03:12:31 10° SE
Cosmos 2227 Rocket 3.1 03:03:41 10° NW 03:08:28 29° WSW 03:13:14 10° SSW
Cosmos 1697 Rocket 3.2 03:04:56 12° SW 03:09:58 50° WNW 03:15:29 10° NNE
ADEOS II 3.1 03:05:51 10° N 03:10:29 32° WNW 03:15:03 10° SW
Cosmos 2150 Rocket 4.2 03:07:27 10° NNW 03:12:40 76° ENE 03:17:47 10° SSE
STARLINK-1231 3.7 03:09:26 10° WNW 03:13:27 51° SW 03:17:28 10° SE
STARLINK-1212 4.5 03:11:44 10° W 03:13:42 16° SW 03:15:41 10° S
STARLINK-1105 4.5 03:12:14 10° W 03:14:10 16° SW 03:16:06 10° S
Cosmos 1315 Rocket 3.1 03:11:52 10° N 03:15:47 71° E 03:19:41 10° SSE
SL-16 R/B 3.8 03:11:00 10° SSE 03:15:55 31° ESE 03:20:52 10° NE
Cosmos 1610 Rocket 4.5 03:10:45 10° SSW 03:16:52 76° W 03:23:02 10° N
Resurs 1-4 Rocket 4.2 03:14:56 10° NNW 03:16:58 12° NW 03:19:00 10° W
CZ-2C R/B 2.6 03:13:44 10° N 03:17:27 78° WNW 03:21:10 10° SSW
STARLINK-1232 3.8 03:14:26 10° WNW 03:18:24 47° SW 03:22:23 10° SSE
MSX 4.1 03:12:42 10° NNE 03:18:29 71° ESE 03:24:12 10° S
SAR-Lupe-4 4.1 03:16:11 10° SSE 03:19:43 64° ENE 03:23:17 10° N
H-2A R/B 2.3 03:15:52 10° S 03:20:00 48° W 03:24:16 10° NNW
ARIANE 5 R/B 3.2 03:17:25 10° N 03:22:06 38° WNW 03:26:43 10° SW
STARLINK-1208 4.0 03:19:25 10° WNW 03:23:21 43° SW 03:27:16 10° SSE
deb Chang Zheng 4 4.2 03:19:13 10° NNE 03:23:30 58° ESE 03:27:42 10° S
BREEZE-M R/B 3.9 03:20:49 10° WNW 03:23:41 26° NNW 03:25:53 10° NE
STARLINK-1225 4.5 03:21:38 10° NW 03:25:44 54° NNE 03:29:47 10° ESE
Spot 4 Rocket 4.5 03:23:07 10° N 03:28:03 47° WNW 03:32:57 10° SW
STARLINK-1271 4.1 03:24:27 10° WNW 03:28:19 39° SW 03:32:11 10° SSE
SL-24 DEB 4.2 03:24:03 10° N 03:28:40 71° W 03:33:15 10° SSW
BREEZE-M DEB (TANK) 1.9 03:26:47 10° W 03:28:43 31° SSW 03:31:11 10° SE
Cosmos 2154 Rocket 4.1 03:23:56 10° SSW 03:30:10 64° W 03:36:25 10° N
Lacrosse 4 Rocket 1.7 03:26:06 10° NW 03:30:15 47° WSW 03:34:16 10° S
STARLINK-1230 4.4 03:26:36 10° NW 03:30:43 58° NNE 03:34:47 10° ESE
Cosmos 2058 3.0 03:27:17 10° S 03:31:28 88° E 03:35:41 10° N
USA 129 2.4 03:30:09 10° N 03:31:49 24° WNW 03:33:03 10° SW
STARLINK-1154 4.2 03:29:28 10° WNW 03:33:16 36° SW 03:37:04 10° SSE
SJ 16-02 3.4 03:32:36 10° W 03:33:26 10° W 03:34:16 10° WSW
Cosmos 2298 Rocket 4.1 03:29:01 10° NNW 03:34:17 65° WSW 03:39:31 10° S
STARLINK-1243 4.2 03:31:34 10° NW 03:35:42 63° NNE 03:39:47 10° ESE
IDEFIX/ARIANE 42P 2.8 03:30:57 10° N 03:36:07 57° WNW 03:41:15 10° SSW
